{"data":{"norad_id":82073,"epoch":"2026-09-17T09:18:58.516992Z","epoch_age_seconds":283169,"freshness":"STALE","line1":"1 82073U          26260.38817728  .00001747  00000+0  44208-3 0  9999","line2":"2 82073  97.7229 314.8134 0204880 155.5032 205.6063 14.40168354615218","mean_motion":14.40168354,"eccentricity":0.020488,"inclination_deg":97.7229,"raan_deg":314.8134,"arg_perigee_deg":155.5032,"mean_anomaly_deg":205.6063,"bstar":0.00044208,"rev_number":61521,"period_min":99.988310116693,"perigee_km":611.73827656926,"apogee_km":904.14626068043,"semimajor_km":7136.0792686248,"source":"CELESTRAK","updated_at":"2026-09-20T09:00:32.430059Z"}}